Station Historical Data
Daily Summary for August 5, 2017 Units:  English    Metric   Both
« Previous Day
Next Day »
Daily Weekly Monthly Yearly Custom
  High: Low: Average:
Temperature: 71.2 °F 56.3 °F 63.9 °F
Dew Point: 59.5 °F 49.5 °F 54.8 °F
Humidity: 90% 48% 73%
Wind Speed: 15.0mph 0.0mph 5.2mph
Wind Gust: 23.0mph - -
Wind- - WSW
Pressure: 30.03 in 29.77 in -
Precipitation: 0.28 in    
Historical Graphs
 
 
Tabular Data for August 5, 2017
Time Temperature Dew Point Pressure Wind Wind Speed Wind Gust Humidity Rainfall Rate (Hourly)
00:00 66.5 °F 56.8 °F 29.78 in WSW 10.0 mph 20.0 mph 71% 0.00 in
00:05 66.5 °F 56.8 °F 29.78 in West 11.0 mph 17.0 mph 71% 0.00 in
00:10 66.4 °F 57.1 °F 29.78 in West 3.0 mph 16.0 mph 72% 0.00 in
00:20 66.0 °F 56.7 °F 29.78 in WSW 9.0 mph 9.0 mph 72% 0.00 in
00:25 66.0 °F 57.1 °F 29.78 in WNW 5.0 mph 12.0 mph 73% 0.00 in
00:30 66.2 °F 57.3 °F 29.78 in WSW 3.0 mph 9.0 mph 73% 0.00 in
00:35 66.2 °F 57.7 °F 29.78 in WSW 4.0 mph 9.0 mph 74% 0.00 in
00:40 66.3 °F 58.5 °F 29.78 in WSW 4.0 mph 10.0 mph 76% 0.00 in
00:45 66.6 °F 58.8 °F 29.78 in WSW 5.0 mph 13.0 mph 76% 0.00 in
00:50 66.9 °F 58.7 °F 29.78 in WSW 6.0 mph 13.0 mph 75% 0.00 in
00:55 67.0 °F 58.8 °F 29.78 in WSW 6.0 mph 12.0 mph 75% 0.00 in
01:00 66.6 °F 58.8 °F 29.78 in SSW 4.0 mph 9.0 mph 76% 0.00 in
01:05 65.5 °F 58.1 °F 29.78 in South 8.0 mph 8.0 mph 77% 0.00 in
01:10 64.9 °F 57.9 °F 29.78 in SSW 4.0 mph 10.0 mph 78% 0.00 in
01:15 64.4 °F 57.7 °F 29.79 in WSW 3.0 mph 11.0 mph 79% 0.01 in
01:20 64.0 °F 57.7 °F 29.79 in SW 4.0 mph 9.0 mph 80% 0.02 in
01:25 63.6 °F 57.7 °F 29.79 in SW 4.0 mph 7.0 mph 81% 0.02 in
01:30 63.3 °F 57.7 °F 29.78 in WNW 3.0 mph 6.0 mph 82% 0.04 in
01:35 63.0 °F 57.4 °F 29.78 in SSW 2.0 mph 10.0 mph 82% 0.07 in
01:40 62.5 °F 57.3 °F 29.78 in SW 4.0 mph 10.0 mph 83% 0.08 in
01:45 62.3 °F 57.4 °F 29.78 in SW 4.0 mph 12.0 mph 84% 0.09 in
01:50 62.2 °F 57.3 °F 29.78 in SW 5.0 mph 12.0 mph 84% 0.10 in
01:55 62.1 °F 57.2 °F 29.78 in SW 5.0 mph 11.0 mph 84% 0.10 in
02:00 62.0 °F 57.1 °F 29.78 in SW 5.0 mph 11.0 mph 84% 0.10 in
02:05 61.9 °F 57.3 °F 29.78 in SW 5.0 mph 14.0 mph 85% 0.11 in
02:10 61.8 °F 57.2 °F 29.78 in SW 4.0 mph 14.0 mph 85% 0.12 in
02:15 61.7 °F 57.1 °F 29.78 in SW 4.0 mph 11.0 mph 85% 0.11 in
02:20 61.6 °F 57.0 °F 29.78 in SW 3.0 mph 11.0 mph 85% 0.11 in
02:25 61.6 °F 57.4 °F 29.78 in SW 5.0 mph 11.0 mph 86% 0.12 in
02:30 61.5 °F 57.3 °F 29.78 in SSW 3.0 mph 10.0 mph 86% 0.10 in
02:35 61.4 °F 56.8 °F 29.78 in SSW 1.0 mph 7.0 mph 85% 0.07 in
02:40 61.4 °F 57.2 °F 29.78 in SW 1.0 mph 7.0 mph 86% 0.06 in
02:45 61.3 °F 56.8 °F 29.78 in SW 3.0 mph 9.0 mph 85% 0.05 in
02:50 61.3 °F 56.8 °F 29.78 in SW 4.0 mph 9.0 mph 85% 0.04 in
02:55 61.2 °F 56.7 °F 29.78 in SW 4.0 mph 8.0 mph 85% 0.04 in
03:00 61.1 °F 56.6 °F 29.78 in SW 4.0 mph 8.0 mph 85% 0.05 in
03:05 61.1 °F 56.6 °F 29.78 in SW 5.0 mph 9.0 mph 85% 0.04 in
03:10 61.0 °F 56.8 °F 29.77 in SSW 5.0 mph 10.0 mph 86% 0.03 in
03:15 61.0 °F 56.8 °F 29.77 in SW 6.0 mph 12.0 mph 86% 0.03 in
03:20 60.8 °F 56.6 °F 29.78 in SW 6.0 mph 15.0 mph 86% 0.03 in
03:25 60.7 °F 56.5 °F 29.78 in South 4.0 mph 14.0 mph 86% 0.02 in
03:30 60.5 °F 56.6 °F 29.77 in SW 7.0 mph 9.0 mph 87% 0.03 in
03:35 60.4 °F 56.5 °F 29.77 in SW 8.0 mph 11.0 mph 87% 0.03 in
03:40 60.4 °F 56.5 °F 29.78 in SSW 7.0 mph 12.0 mph 87% 0.03 in
03:45 60.4 °F 56.5 °F 29.78 in SW 5.0 mph 13.0 mph 87% 0.04 in
03:50 60.3 °F 56.4 °F 29.78 in SSW 2.0 mph 14.0 mph 87% 0.05 in
03:55 60.3 °F 56.4 °F 29.78 in SSW 3.0 mph 9.0 mph 87% 0.05 in
04:00 60.2 °F 56.6 °F 29.78 in South 3.0 mph 8.0 mph 88% 0.04 in
04:05 60.1 °F 56.5 °F 29.78 in SW 6.0 mph 10.0 mph 88% 0.04 in
04:10 60.0 °F 56.4 °F 29.78 in South 6.0 mph 10.0 mph 88% 0.04 in
04:15 60.1 °F 56.2 °F 29.78 in WSW 4.0 mph 8.0 mph 87% 0.05 in
04:20 60.0 °F 56.1 °F 29.78 in SSW 4.0 mph 16.0 mph 87% 0.05 in
04:25 59.9 °F 56.0 °F 29.78 in SSW 5.0 mph 16.0 mph 87% 0.05 in
04:30 59.9 °F 56.0 °F 29.78 in SSW 5.0 mph 12.0 mph 87% 0.04 in
04:35 59.8 °F 55.9 °F 29.78 in SSW 4.0 mph 9.0 mph 87% 0.04 in
04:40 59.8 °F 55.9 °F 29.78 in SW 2.0 mph 12.0 mph 87% 0.04 in
04:45 59.8 °F 55.9 °F 29.78 in SSW 5.0 mph 9.0 mph 87% 0.04 in
04:50 59.8 °F 55.9 °F 29.78 in SSW 4.0 mph 10.0 mph 87% 0.03 in
04:55 59.7 °F 55.8 °F 29.78 in SW 4.0 mph 11.0 mph 87% 0.03 in
05:00 59.7 °F 55.8 °F 29.78 in WSW 2.0 mph 11.0 mph 87% 0.03 in
05:05 59.6 °F 56.0 °F 29.78 in SW 7.0 mph 11.0 mph 88% 0.03 in
05:10 59.7 °F 55.8 °F 29.78 in WSW 2.0 mph 8.0 mph 87% 0.03 in
05:15 59.7 °F 55.8 °F 29.78 in South 5.0 mph 9.0 mph 87% 0.02 in
05:20 59.6 °F 55.7 °F 29.78 in SSW 4.0 mph 14.0 mph 87% 0.01 in
05:25 59.6 °F 55.7 °F 29.78 in SSW 5.0 mph 14.0 mph 87% 0.01 in
05:30 59.7 °F 55.5 °F 29.78 in SSW 5.0 mph 13.0 mph 86% 0.01 in
05:35 59.7 °F 55.2 °F 29.78 in SSW 5.0 mph 13.0 mph 85% 0.01 in
05:40 59.7 °F 55.2 °F 29.78 in SSW 5.0 mph 14.0 mph 85% 0.01 in
05:45 59.8 °F 55.3 °F 29.78 in SSW 6.0 mph 15.0 mph 85% 0.00 in
05:50 59.9 °F 55.1 °F 29.78 in SSW 6.0 mph 15.0 mph 84% 0.00 in
05:55 59.9 °F 55.4 °F 29.78 in SSW 8.0 mph 17.0 mph 85% 0.00 in
06:00 59.8 °F 55.3 °F 29.78 in South 5.0 mph 18.0 mph 85% 0.01 in
06:05 59.6 °F 55.4 °F 29.78 in SSW 8.0 mph 11.0 mph 86% 0.01 in
06:10 59.5 °F 55.3 °F 29.78 in SE 7.0 mph 16.0 mph 86% 0.01 in
06:15 59.5 °F 55.3 °F 29.79 in South 7.0 mph 18.0 mph 86% 0.01 in
06:20 59.4 °F 55.2 °F 29.79 in South 3.0 mph 16.0 mph 86% 0.01 in
06:25 59.3 °F 55.1 °F 29.79 in SSW 6.0 mph 18.0 mph 86% 0.01 in
06:30 59.2 °F 55.0 °F 29.80 in SSW 5.0 mph 18.0 mph 86% 0.01 in
06:35 59.2 °F 55.3 °F 29.80 in SW 5.0 mph 13.0 mph 87% 0.03 in
06:40 59.1 °F 55.2 °F 29.80 in SW 5.0 mph 13.0 mph 87% 0.04 in
06:45 59.0 °F 55.4 °F 29.81 in WSW 4.0 mph 9.0 mph 88% 0.04 in
06:50 59.0 °F 55.4 °F 29.81 in Calm   4.0 mph 88% 0.04 in
06:55 59.1 °F 55.9 °F 29.81 in SW 2.0 mph 6.0 mph 89% 0.04 in
07:00 59.1 °F 55.9 °F 29.81 in SW 2.0 mph 6.0 mph 89% 0.03 in
07:05 59.3 °F 56.1 °F 29.81 in Calm   7.0 mph 89% 0.03 in
07:10 59.6 °F 56.7 °F 29.81 in Calm   3.0 mph 90% 0.03 in
07:15 59.7 °F 56.8 °F 29.81 in Calm   3.0 mph 90% 0.03 in
07:20 59.9 °F 57.0 °F 29.81 in SW 1.0 mph 3.0 mph 90% 0.03 in
07:25 59.9 °F 56.6 °F 29.81 in West 1.0 mph 5.0 mph 89% 0.03 in
07:30 60.0 °F 56.7 °F 29.82 in West 2.0 mph 5.0 mph 89% 0.03 in
07:35 60.2 °F 56.9 °F 29.82 in West 2.0 mph 7.0 mph 89% 0.01 in
07:40 60.5 °F 56.9 °F 29.82 in West 3.0 mph 7.0 mph 88% 0.00 in
07:45 60.8 °F 56.9 °F 29.82 in West 3.0 mph 6.0 mph 87% 0.00 in
07:50 60.9 °F 57.0 °F 29.83 in WNW 7.0 mph 8.0 mph 87% 0.00 in
07:55 61.1 °F 56.9 °F 29.83 in West 3.0 mph 7.0 mph 86% 0.00 in
08:00 61.0 °F 56.8 °F 29.83 in West 3.0 mph 7.0 mph 86% 0.00 in
08:05 60.9 °F 56.4 °F 29.83 in WNW 4.0 mph 7.0 mph 85% 0.01 in
08:10 60.7 °F 56.5 °F 29.83 in West 6.0 mph 10.0 mph 86% 0.01 in
08:15 60.6 °F 56.1 °F 29.83 in WSW 3.0 mph 10.0 mph 85% 0.01 in
08:20 60.6 °F 55.7 °F 29.83 in WNW 2.0 mph 11.0 mph 84% 0.01 in
08:25 60.7 °F 55.8 °F 29.84 in WSW 2.0 mph 11.0 mph 84% 0.01 in
08:30 60.8 °F 55.6 °F 29.84 in SW 3.0 mph 6.0 mph 83% 0.01 in
08:35 61.2 °F 56.0 °F 29.84 in WSW 3.0 mph 8.0 mph 83% 0.01 in
08:40 61.6 °F 56.0 °F 29.84 in West 4.0 mph 8.0 mph 82% 0.01 in
08:45 61.9 °F 56.3 °F 29.84 in West 5.0 mph 8.0 mph 82% 0.01 in
08:50 62.1 °F 56.2 °F 29.84 in West 4.0 mph 11.0 mph 81% 0.01 in
08:55 62.4 °F 56.1 °F 29.84 in West 5.0 mph 9.0 mph 80% 0.01 in
09:00 62.9 °F 56.6 °F 29.84 in WSW 4.0 mph 6.0 mph 80% 0.01 in
09:05 62.8 °F 56.2 °F 29.85 in West 4.0 mph 8.0 mph 79% 0.00 in
09:10 62.7 °F 55.7 °F 29.85 in West 4.0 mph 10.0 mph 78% 0.00 in
09:15 62.8 °F 55.5 °F 29.85 in West 3.0 mph 10.0 mph 77% 0.00 in
09:20 63.0 °F 55.7 °F 29.85 in West 2.0 mph 10.0 mph 77% 0.00 in
09:25 63.2 °F 55.1 °F 29.85 in WNW 7.0 mph 12.0 mph 75% 0.00 in
09:30 63.5 °F 55.4 °F 29.86 in West 10.0 mph 13.0 mph 75% 0.00 in
09:35 63.6 °F 55.2 °F 29.86 in West 2.0 mph 12.0 mph 74% 0.00 in
09:40 63.6 °F 54.4 °F 29.86 in West 7.0 mph 14.0 mph 72% 0.00 in
09:45 63.5 °F 54.3 °F 29.86 in West 7.0 mph 14.0 mph 72% 0.00 in
09:50 63.7 °F 54.1 °F 29.86 in WNW 11.0 mph 15.0 mph 71% 0.00 in
09:55 64.0 °F 54.8 °F 29.86 in West 3.0 mph 11.0 mph 72% 0.00 in
10:00 64.4 °F 54.8 °F 29.86 in NNW 4.0 mph 9.0 mph 71% 0.00 in
10:05 64.2 °F 54.2 °F 29.86 in West 7.0 mph 15.0 mph 70% 0.00 in
10:10 64.3 °F 54.7 °F 29.86 in WSW 6.0 mph 15.0 mph 71% 0.00 in
10:15 64.5 °F 54.9 °F 29.86 in West 7.0 mph 16.0 mph 71% 0.00 in
10:20 64.5 °F 54.9 °F 29.87 in West 7.0 mph 16.0 mph 71% 0.00 in
10:25 64.5 °F 55.3 °F 29.87 in West 7.0 mph 16.0 mph 72% 0.00 in
10:30 64.7 °F 55.5 °F 29.87 in West 8.0 mph 19.0 mph 72% 0.00 in
10:35 64.9 °F 55.7 °F 29.87 in SSW 8.0 mph 15.0 mph 72% 0.00 in
10:40 65.4 °F 55.7 °F 29.87 in WNW 5.0 mph 14.0 mph 71% 0.00 in
10:45 67.6 °F 57.5 °F 29.88 in West 6.0 mph 16.0 mph 70% 0.00 in
10:50 66.3 °F 55.8 °F 29.88 in WNW 7.0 mph 18.0 mph 69% 0.00 in
10:55 65.7 °F 56.0 °F 29.88 in WNW 4.0 mph 15.0 mph 71% 0.00 in
11:00 65.3 °F 55.3 °F 29.88 in West 8.0 mph 15.0 mph 70% 0.00 in
11:05 64.9 °F 55.7 °F 29.88 in West 10.0 mph 12.0 mph 72% 0.00 in
11:10 64.8 °F 55.9 °F 29.88 in West 7.0 mph 17.0 mph 73% 0.00 in
11:15 64.9 °F 56.0 °F 29.89 in West 7.0 mph 19.0 mph 73% 0.00 in
11:20 65.5 °F 56.2 °F 29.89 in West 7.0 mph 19.0 mph 72% 0.00 in
11:25 65.8 °F 55.7 °F 29.88 in West 7.0 mph 16.0 mph 70% 0.00 in
11:30 65.8 °F 55.3 °F 29.89 in WSW 9.0 mph 18.0 mph 69% 0.00 in
11:35 66.0 °F 55.9 °F 29.89 in West 10.0 mph 15.0 mph 70% 0.00 in
11:40 66.2 °F 55.7 °F 29.89 in West 7.0 mph 15.0 mph 69% 0.00 in
11:45 66.4 °F 55.9 °F 29.89 in West 4.0 mph 16.0 mph 69% 0.00 in
11:50 66.5 °F 56.0 °F 29.89 in WNW 5.0 mph 15.0 mph 69% 0.00 in
11:55 66.1 °F 55.6 °F 29.89 in WSW 2.0 mph 17.0 mph 69% 0.00 in
12:00 65.4 °F 55.4 °F 29.89 in West 6.0 mph 16.0 mph 70% 0.00 in
12:05 65.3 °F 55.3 °F 29.89 in WSW 15.0 mph 17.0 mph 70% 0.00 in
12:10 66.7 °F 56.2 °F 29.89 in West 8.0 mph 19.0 mph 69% 0.00 in
12:15 67.0 °F 55.7 °F 29.89 in WSW 8.0 mph 19.0 mph 67% 0.00 in
12:20 66.3 °F 55.8 °F 29.90 in West 8.0 mph 16.0 mph 69% 0.00 in
12:25 65.6 °F 55.5 °F 29.90 in West 8.0 mph 16.0 mph 70% 0.00 in
12:30 65.2 °F 54.8 °F 29.90 in WSW 8.0 mph 21.0 mph 69% 0.00 in
12:35 64.8 °F 54.8 °F 29.90 in WSW 12.0 mph 17.0 mph 70% 0.00 in
12:40 65.2 °F 55.9 °F 29.90 in West 7.0 mph 17.0 mph 72% 0.00 in
12:45 65.5 °F 55.5 °F 29.90 in West 7.0 mph 16.0 mph 70% 0.00 in
12:50 65.5 °F 55.8 °F 29.90 in WSW 7.0 mph 16.0 mph 71% 0.00 in
12:55 65.8 °F 56.1 °F 29.90 in WSW 7.0 mph 14.0 mph 71% 0.00 in
13:00 65.6 °F 55.5 °F 29.90 in WSW 8.0 mph 18.0 mph 70% 0.00 in
13:05 65.5 °F 55.8 °F 29.90 in SSW 7.0 mph 16.0 mph 71% 0.00 in
13:10 65.9 °F 56.6 °F 29.90 in WSW 7.0 mph 16.0 mph 72% 0.00 in
13:15 67.1 °F 57.0 °F 29.90 in WSW 6.0 mph 12.0 mph 70% 0.00 in
13:20 66.9 °F 56.4 °F 29.90 in WSW 10.0 mph 16.0 mph 69% 0.00 in
13:25 66.4 °F 55.9 °F 29.90 in West 6.0 mph 18.0 mph 69% 0.00 in
13:30 66.3 °F 56.2 °F 29.90 in WSW 6.0 mph 14.0 mph 70% 0.00 in
13:35 65.9 °F 55.8 °F 29.90 in SW 7.0 mph 13.0 mph 70% 0.00 in
13:40 65.5 °F 56.2 °F 29.90 in West 6.0 mph 14.0 mph 72% 0.00 in
13:45 64.6 °F 55.7 °F 29.91 in West 7.0 mph 15.0 mph 73% 0.00 in
13:50 63.2 °F 56.6 °F 29.91 in West 8.0 mph 19.0 mph 79% 0.01 in
13:55 62.0 °F 56.4 °F 29.90 in West 7.0 mph 19.0 mph 82% 0.01 in
14:00 62.1 °F 56.5 °F 29.91 in West 6.0 mph 13.0 mph 82% 0.01 in
14:05 63.1 °F 57.5 °F 29.91 in West 6.0 mph 13.0 mph 82% 0.01 in
14:10 65.1 °F 59.5 °F 29.91 in WSW 3.0 mph 9.0 mph 82% 0.01 in
14:15 65.6 °F 58.6 °F 29.91 in West 5.0 mph 10.0 mph 78% 0.01 in
14:25 67.7 °F 57.6 °F 29.91 in WNW 8.0 mph 12.0 mph 70% 0.01 in
14:30 68.5 °F 59.5 °F 29.91 in WNW 9.0 mph 9.0 mph 73% 0.01 in
14:35 67.9 °F 57.4 °F 29.91 in West 12.0 mph 15.0 mph 69% 0.01 in
14:40 67.2 °F 56.7 °F 29.91 in WNW 11.0 mph 16.0 mph 69% 0.01 in
14:45 66.6 °F 56.1 °F 29.91 in West 7.0 mph 17.0 mph 69% 0.01 in
14:50 65.9 °F 56.6 °F 29.92 in West 7.0 mph 17.0 mph 72% 0.00 in
14:55 65.3 °F 56.8 °F 29.92 in WSW 10.0 mph 15.0 mph 74% 0.00 in
15:00 65.5 °F 57.0 °F 29.92 in West 6.0 mph 12.0 mph 74% 0.00 in
15:05 66.3 °F 57.8 °F 29.92 in WSW 5.0 mph 12.0 mph 74% 0.00 in
15:10 68.0 °F 58.2 °F 29.92 in SW 5.0 mph 11.0 mph 71% 0.00 in
15:15 68.5 °F 57.9 °F 29.92 in SW 4.0 mph 16.0 mph 69% 0.00 in
15:20 69.2 °F 58.2 °F 29.92 in WSW 8.0 mph 17.0 mph 68% 0.00 in
15:25 69.7 °F 58.3 °F 29.92 in West 6.0 mph 19.0 mph 67% 0.00 in
15:30 69.0 °F 56.7 °F 29.92 in West 14.0 mph 18.0 mph 65% 0.00 in
15:35 69.7 °F 57.4 °F 29.92 in West 3.0 mph 14.0 mph 65% 0.00 in
15:40 69.1 °F 57.3 °F 29.92 in SW 9.0 mph 16.0 mph 66% 0.00 in
15:45 69.4 °F 57.1 °F 29.92 in WNW 6.0 mph 16.0 mph 65% 0.00 in
15:50 69.3 °F 57.0 °F 29.92 in WSW 8.0 mph 18.0 mph 65% 0.00 in
15:55 69.4 °F 57.1 °F 29.92 in WSW 8.0 mph 18.0 mph 65% 0.00 in
16:00 68.8 °F 56.6 °F 29.93 in WSW 9.0 mph 17.0 mph 65% 0.00 in
16:05 68.2 °F 56.0 °F 29.93 in West 12.0 mph 21.0 mph 65% 0.00 in
16:10 68.0 °F 56.2 °F 29.93 in SW 4.0 mph 15.0 mph 66% 0.00 in
16:15 68.4 °F 56.2 °F 29.93 in West 9.0 mph 13.0 mph 65% 0.00 in
16:20 69.6 °F 56.4 °F 29.93 in WNW 11.0 mph 19.0 mph 63% 0.00 in
16:25 70.3 °F 57.5 °F 29.93 in WSW 9.0 mph 19.0 mph 64% 0.00 in
16:30 70.6 °F 57.4 °F 29.94 in WSW 9.0 mph 18.0 mph 63% 0.00 in
16:35 69.3 °F 57.0 °F 29.94 in WNW 8.0 mph 17.0 mph 65% 0.00 in
16:40 69.8 °F 56.6 °F 29.94 in WSW 7.0 mph 22.0 mph 63% 0.00 in
16:45 69.2 °F 56.5 °F 29.94 in SW 10.0 mph 13.0 mph 64% 0.00 in
16:50 68.4 °F 55.3 °F 29.94 in SW 13.0 mph 18.0 mph 63% 0.00 in
16:55 68.4 °F 55.7 °F 29.94 in WSW 10.0 mph 18.0 mph 64% 0.00 in
17:00 68.3 °F 55.6 °F 29.94 in WSW 9.0 mph 18.0 mph 64% 0.00 in
17:05 68.4 °F 56.2 °F 29.94 in WSW 9.0 mph 18.0 mph 65% 0.00 in
17:10 68.6 °F 56.8 °F 29.95 in West 8.0 mph 15.0 mph 66% 0.00 in
17:15 68.8 °F 55.7 °F 29.95 in WSW 9.0 mph 15.0 mph 63% 0.00 in
17:20 68.9 °F 55.8 °F 29.95 in WNW 6.0 mph 11.0 mph 63% 0.00 in
17:25 68.8 °F 55.2 °F 29.95 in West 7.0 mph 14.0 mph 62% 0.00 in
17:30 69.6 °F 55.6 °F 29.95 in West 7.0 mph 14.0 mph 61% 0.00 in
17:35 70.9 °F 54.9 °F 29.95 in West 7.0 mph 12.0 mph 57% 0.00 in
17:40 71.2 °F 53.7 °F 29.95 in West 9.0 mph 17.0 mph 54% 0.00 in
17:45 71.1 °F 53.1 °F 29.95 in West 9.0 mph 18.0 mph 53% 0.00 in
17:50 71.0 °F 51.4 °F 29.95 in West 7.0 mph 21.0 mph 50% 0.00 in
17:55 71.1 °F 51.5 °F 29.96 in WNW 8.0 mph 22.0 mph 50% 0.00 in
18:00 71.2 °F 51.1 °F 29.95 in WNW 5.0 mph 14.0 mph 49% 0.00 in
18:05 71.2 °F 50.5 °F 29.95 in West 8.0 mph 13.0 mph 48% 0.00 in
18:10 70.9 °F 50.8 °F 29.96 in West 12.0 mph 18.0 mph 49% 0.00 in
18:15 70.7 °F 50.0 °F 29.96 in West 8.0 mph 17.0 mph 48% 0.00 in
18:20 70.5 °F 50.4 °F 29.96 in NW 8.0 mph 19.0 mph 49% 0.00 in
18:25 70.3 °F 49.7 °F 29.96 in West 10.0 mph 16.0 mph 48% 0.00 in
18:30 70.1 °F 50.0 °F 29.96 in WNW 6.0 mph 16.0 mph 49% 0.00 in
18:35 69.9 °F 49.9 °F 29.96 in WNW 10.0 mph 22.0 mph 49% 0.00 in
18:40 69.7 °F 49.7 °F 29.96 in WNW 10.0 mph 22.0 mph 49% 0.00 in
18:45 69.5 °F 50.6 °F 29.97 in West 9.0 mph 19.0 mph 51% 0.00 in
18:50 69.4 °F 50.5 °F 29.96 in WSW 9.0 mph 14.0 mph 51% 0.00 in
18:55 69.3 °F 50.9 °F 29.97 in NW 7.0 mph 14.0 mph 52% 0.00 in
19:00 69.4 °F 51.0 °F 29.97 in WNW 8.0 mph 16.0 mph 52% 0.00 in
19:05 69.5 °F 50.0 °F 29.97 in West 8.0 mph 23.0 mph 50% 0.00 in
19:10 69.2 °F 49.8 °F 29.97 in West 7.0 mph 16.0 mph 50% 0.00 in
19:15 68.9 °F 49.5 °F 29.97 in West 5.0 mph 18.0 mph 50% 0.00 in
19:20 68.7 °F 50.4 °F 29.98 in West 9.0 mph 14.0 mph 52% 0.00 in
19:25 68.5 °F 50.2 °F 29.98 in West 6.0 mph 12.0 mph 52% 0.00 in
19:30 68.3 °F 50.0 °F 29.98 in West 6.0 mph 12.0 mph 52% 0.00 in
19:35 68.1 °F 50.3 °F 29.98 in West 6.0 mph 11.0 mph 53% 0.00 in
19:40 68.0 °F 50.2 °F 29.98 in West 5.0 mph 11.0 mph 53% 0.00 in
19:45 67.7 °F 50.9 °F 29.99 in West 6.0 mph 14.0 mph 55% 0.00 in
19:50 67.5 °F 50.8 °F 29.99 in West 6.0 mph 10.0 mph 55% 0.00 in
19:55 67.2 °F 50.5 °F 29.99 in NW 7.0 mph 15.0 mph 55% 0.00 in
20:00 67.1 °F 50.4 °F 30.00 in NW 4.0 mph 12.0 mph 55% 0.00 in
20:05 66.9 °F 50.7 °F 29.99 in WNW 5.0 mph 12.0 mph 56% 0.00 in
20:10 66.6 °F 50.4 °F 29.99 in WNW 5.0 mph 10.0 mph 56% 0.00 in
20:15 66.4 °F 50.7 °F 29.99 in NW 4.0 mph 10.0 mph 57% 0.00 in
20:20 66.2 °F 50.5 °F 29.99 in WNW 2.0 mph 8.0 mph 57% 0.00 in
20:25 65.9 °F 50.2 °F 29.99 in West 5.0 mph 9.0 mph 57% 0.00 in
20:30 65.7 °F 50.5 °F 30.00 in West 5.0 mph 10.0 mph 58% 0.00 in
20:35 65.6 °F 50.4 °F 30.00 in WNW 3.0 mph 8.0 mph 58% 0.00 in
20:40 65.3 °F 50.1 °F 30.00 in WNW 4.0 mph 8.0 mph 58% 0.00 in
20:45 65.2 °F 50.5 °F 30.00 in WNW 4.0 mph 10.0 mph 59% 0.00 in
20:50 65.1 °F 50.4 °F 30.00 in WNW 4.0 mph 8.0 mph 59% 0.00 in
20:55 64.8 °F 50.1 °F 30.00 in WNW 6.0 mph 8.0 mph 59% 0.00 in
21:00 64.7 °F 50.5 °F 30.00 in WNW 2.0 mph 8.0 mph 60% 0.00 in
21:05 64.3 °F 50.1 °F 30.00 in WNW 2.0 mph 5.0 mph 60% 0.00 in
21:10 64.1 °F 50.4 °F 30.00 in WNW 2.0 mph 5.0 mph 61% 0.00 in
21:15 64.0 °F 50.7 °F 30.00 in West 2.0 mph 5.0 mph 62% 0.00 in
21:20 63.5 °F 50.2 °F 30.00 in West 2.0 mph 5.0 mph 62% 0.00 in
21:25 63.2 °F 50.4 °F 30.00 in Calm   2.0 mph 63% 0.00 in
21:30 62.7 °F 50.3 °F 30.00 in Calm   2.0 mph 64% 0.00 in
21:35 62.3 °F 50.4 °F 30.00 in Calm   3.0 mph 65% 0.00 in
21:40 62.1 °F 50.6 °F 30.01 in Calm   3.0 mph 66% 0.00 in
21:45 61.5 °F 50.8 °F 30.00 in Calm     68% 0.00 in
21:50 61.0 °F 50.4 °F 30.01 in Calm     68% 0.00 in
21:55 60.6 °F 50.8 °F 30.01 in Calm     70% 0.00 in
22:00 60.2 °F 50.8 °F 30.01 in Calm     71% 0.00 in
22:05 59.8 °F 50.4 °F 30.01 in Calm     71% 0.00 in
22:10 59.4 °F 50.4 °F 30.01 in Calm     72% 0.00 in
22:15 59.1 °F 50.5 °F 30.01 in Calm     73% 0.00 in
22:20 58.8 °F 50.5 °F 30.01 in Calm     74% 0.00 in
22:25 58.5 °F 50.6 °F 30.02 in Calm     75% 0.00 in
22:30 58.2 °F 50.3 °F 30.02 in Calm     75% 0.00 in
22:35 58.1 °F 50.6 °F 30.02 in Calm     76% 0.00 in
22:40 57.9 °F 50.4 °F 30.02 in Calm     76% 0.00 in
22:45 58.0 °F 50.5 °F 30.02 in Calm   2.0 mph 76% 0.00 in
22:50 58.1 °F 50.6 °F 30.02 in Calm     76% 0.00 in
22:55 58.2 °F 50.7 °F 30.02 in Calm     76% 0.00 in
23:00 58.1 °F 50.6 °F 30.02 in Calm     76% 0.00 in
23:05 57.8 °F 50.6 °F 30.02 in Calm     77% 0.00 in
23:10 57.7 °F 50.5 °F 30.02 in Calm     77% 0.00 in
23:15 57.6 °F 50.4 °F 30.02 in Calm     77% 0.00 in
23:20 57.4 °F 50.6 °F 30.03 in Calm     78% 0.00 in
23:25 57.3 °F 50.5 °F 30.03 in Calm     78% 0.00 in
23:30 57.1 °F 50.3 °F 30.02 in Calm     78% 0.00 in
23:35 56.9 °F 50.5 °F 30.02 in Calm     79% 0.00 in
23:45 56.6 °F 50.2 °F 30.02 in Calm     79% 0.00 in
23:50 56.4 °F 50.0 °F 30.02 in Calm     79% 0.00 in
23:55 56.3 °F 49.9 °F 30.02 in Calm     79% 0.00 in
Buffalo, New York, USA
Compliments of Weather Underground - 2.5 mb